User: anonymous   Login
Location: Proctor
(47.8934°N, 114.3048°W)
Time: 00:12:44
(UTC+00:00)
Language:

TIGRISAT - Orbit

View from above orbital plane
View from above orbital plane
View from above satellite
View from above satellite

Ground track
Ground track

The orbit data is extracted from the following two-line orbital elements,

1 40043U 14033AK  22179.48892824  .00000674  00000-0  10441-3 0  9998
2 40043  97.6560   8.1534 0060544 120.0561 240.6673 14.75030073431254
Epoch (UTC): 28 June 2022 11:44:03
Eccentricity: 0.0060544
inclination: 97.6560°
perigee height: 602 km
apogee height: 687 km
right ascension of ascending node: 8.1534°
argument of perigee: 120.0561°
revolutions per day: 14.75030073
mean anomaly at epoch: 240.6673°
orbit number at epoch: 43125

The dashed part of the orbit path shows where the satellite is in the earth's shadow,  

DLR